RH
14 10 5 6 6 4 4 5 7 9 9 9 9 9 9 9 9 15 9 9 10 10 10 11 11 12 21 33 43 30 22 20 19 16 12 10 9 16 18 19 16 16 18 20 19 17 16 16 19
38 22 3 3 3 4 8 10 10 9 9 9 9 10 10 10 10 9 9 9 9 9 9 11 15 11 14 17 23 28 29 34 28 25 24 14 13 14 7 10 15 15 14 14 13 13 14 13 14
7 3 3 4 7 13 12 11 10 10 9 9 10 11 11 10 10 10 10 9 9 9 8 25 19 12 10 10 13 20 26 32 43 40 32 25 20 15 16 18 16 10 8 8 10 10 10 12 13
6 10 5 7 13 11 11 10 10 10 10 10 10 10 10 11 10 10 10 9 9 9 10 9 9 16 11 14 9 9 12 24 38 47 45 42 35 33 30 25 21 19 20 20 20 21 24 23 17
5 5 8 12 13 11 10 10 10 10 10 10 9 10 10 10 10 10 10 10 10 10 9 9 9 8 8 7 7 7 8 8 19 36 47 51 48 39 35 34 35 32 27 20 17 21 26 27 27
6 7 12 13 12 10 10 10 10 10 10 9 9 10 10 10 9 9 9 9 10 10 9 9 8 8 8 8 7 8 8 8 8 7 10 17 23 36 42 37 35 32 32 30 28 24 18 15 15
8 13 16 12 12 10 11 12 12 11 10 9 9 9 9 8 9 9 9 9 9 9 9 8 8 8 7 7 7 7 7 7 7 8 8 8 10 14 24 31 27 20 20 20 23 24 26 23 19
8 10 12 11 11 12 13 12 13 11 10 10 9 8 8 9 9 9 9 9 9 9 9 8 8 7 7 7 7 7 7 7 7 7 8 8 8 8 8 11 18 21 24 23 18 11 9 10 15
11 11 11 12 12 13 14 14 13 12 11 10 9 8 9 9 9 9 9 10 10 10 9 8 8 7 7 7 7 7 8 8 8 9 9 9 9 8 8 10 20 11 9 9 13 20 20 14 10
13 12 10 9 9 14 14 13 12 12 11 10 9 9 9 9 9 9 9 10 10 10 10 10 10 11 11 11 11 11 11 10 11 12 12 14 14 14 14 14 15 14 19 27 23 16 14 13 14
12 10 12 12 13 13 13 12 12 11 11 11 11 11 11 10 10 10 10 10 12 13 15 15 15 16 16 15 14 13 12 13 13 13 13 12 11 10 9 11 19 14 13 19 23 24 26 25 22
17 15 15 14 13 13 12 12 11 11 11 12 12 13 13 12 12 12 12 14 15 16 18 21 22 19 16 12 10 9 8 8 8 8 7 7 6 6 6 6 7 7 8 8 8 8 8 8 8
22 21 19 18 17 16 14 12 12 12 12 13 14 14 13 14 13 14 15 17 20 21 26 26 16 11 9 8 8 8 8 8 7 7 8 8 8 9 9 9 9 9 9 9 10 10 11 11 11
18 20 21 20 19 17 15 14 13 13 14 14 14 14 14 15 16 17 22 24 26 28 22 11 10 11 9 7 6 6 6 7 8 9 9 9 8 8 8 8 8 8 9 9 10 10 10 11 12
18 18 17 17 17 16 15 14 15 14 14 14 15 17 22 23 24 27 28 29 29 18 11 10 7 8 9 9 9 9 8 8 7 7 7 7 6 6 7 7 8 8 9 10 11 12 12 12 13
16 16 16 15 15 15 14 15 14 14 15 16 21 27 29 30 30 30 27 23 13 11 8 7 8 7 6 6 7 8 7 7 7 6 6 6 6 7 8 9 11 14 16 17 18 19 20 17 17
21 18 17 19 19 18 18 20 16 15 20 27 31 32 30 24 18 16 12 10 12 10 10 11 11 11 11 9 8 7 7 6 5 6 8 10 12 13 13 14 16 18 16 13 9 7 8 9 11
39 36 33 32 34 32 34 30 29 30 32 31 24 17 12 10 10 9 10 11 10 11 11 10 10 12 13 11 8 6 5 8 12 14 14 14 14 15 15 15 15 13 8 7 10 12 13 13 15
44 48 44 45 54 48 42 40 34 33 27 17 11 12 10 9 9 10 10 10 9 8 9 10 12 13 11 6 7 13 16 16 14 12 10 9 8 6 6 6 5 6 12 16 18 13 14 18 21
47 49 52 63 55 52 42 32 30 26 18 16 10 10 11 11 10 10 9 9 10 11 12 12 10 8 14 20 20 18 13 8 5 3 2 2 2 3 4 5 12 14 16 20 18 16 17 19 23
25 35 30 25 20 22 18 17 16 15 16 14 13 13 12 12 12 13 12 12 11 9 10 17 22 22 19 12 6 3 3 3 3 3 3 3 4 4 9 14 13 14 17 16 17 22 24 27 26
15 14 13 13 13 12 12 11 11 12 11 10 9 8 7 7 6 6 8 13 22 25 24 18 12 6 4 3 3 4 8 18 21 20 18 13 15 16 17 17 16 18 16 19 24 28 29 25 18
16 14 14 14 13 11 11 10 10 11 12 12 11 11 11 14 20 27 29 27 18 10 6 5 5 4 5 11 24 25 24 25 26 25 24 21 19 19 17 17 16 17 22 26 29 32 32 20 11
21 20 19 18 17 14 14 14 11 18 21 23 25 26 27 28 26 18 8 5 4 5 5 5 8 22 30 22 10 9 9 12 13 15 16 20 20 21 22 20 23 26 27 28 33 33 25 15 15
30 24 23 23 23 23 25 25 27 32 28 23 18 14 10 6 4 4 4 4 4 6 14 26 26 15 9 8 7 6 5 6 6 6 17 27 29 30 31 30 28 29 26 30 33 33 26 20 19
30 31 33 35 35 33 32 28 22 14 11 9 6 5 4 4 4 4 4 11 28 27 22 19 17 15 11 6 6 5 6 4 5 7 20 26 27 27 29 29 17 11 20 34 39 34 30 26 24
36 36 35 32 28 15 12 11 16 10 7 6 5 5 4 4 5 19 22 12 8 6 5 5 5 5 5 5 5 5 4 5 5 5 8 14 22 26 19 5 6 14 14 12 19 30 37 38 34
27 26 25 23 19 14 10 11 14 9 7 6 6 5 6 17 24 10 7 5 5 7 12 15 14 11 8 8 6 5 4 4 4 6 14 11 19 9 5 5 5 5 5 6 6 6 9 24 35
30 28 33 31 28 21 13 10 11 8 8 8 12 14 27 19 7 7 5 5 8 11 17 21 10 5 5 5 5 4 4 4 5 17 8 7 6 6 5 6 6 7 7 8 9 9 9 8 22
28 30 28 24 18 16 12 11 23 26 27 28 26 28 14 6 7 6 4 5 8 11 21 14 6 5 4 4 4 4 4 5 9 17 8 6 5 6 6 6 6 8 10 10 12 14 15 13 12
Wind_Speed
30 31 32 34 33 33 33 29 26 23 21 19 16 13 11 11 9 8 6 6 7 7 8 8 7 6 5 5 6 6 6 7 7 7 7 8 13 19 20 18 16 16 15 14 13 13 13 12 13
30 34 36 36 34 33 29 26 25 24 21 19 15 13 11 10 8 6 5 6 6 6 8 9 9 10 9 9 10 9 9 9 9 10 9 9 8 7 9 15 20 21 20 19 18 18 18 17 17
36 34 35 35 34 31 29 26 24 22 20 18 16 13 11 10 8 8 7 6 6 7 7 9 11 11 13 13 13 13 13 12 12 11 11 11 11 9 9 8 9 10 13 16 19 21 22 23 23
39 39 36 35 34 32 27 25 23 21 20 18 16 14 12 11 10 9 8 8 8 9 9 9 10 12 14 16 16 16 16 15 14 14 13 12 12 12 12 12 12 12 13 14 15 16 16 16 15
42 43 41 39 35 30 28 25 24 21 19 18 17 15 13 13 12 11 11 11 11 12 11 12 13 14 15 17 18 18 18 18 18 17 16 17 16 16 16 16 17 17 17 18 18 19 19 19 19
44 43 40 38 35 31 29 27 24 22 20 19 18 17 16 15 14 14 14 15 14 15 16 16 17 17 17 17 19 19 20 20 20 21 22 22 22 21 22 21 22 23 23 23 24 24 25 25 25
44 44 40 39 35 33 30 27 25 23 21 19 19 19 17 16 16 16 16 18 18 18 20 21 21 20 21 20 21 22 22 22 23 23 24 24 25 26 27 27 28 29 29 30 30 30 30 31 30
46 45 45 40 35 33 31 28 26 25 22 23 22 21 20 18 18 19 19 20 21 22 23 24 24 24 24 25 24 25 25 25 26 27 27 28 29 29 30 30 31 31 32 33 34 34 35 36 36
46 44 42 40 37 33 31 30 28 27 25 24 23 23 22 21 22 22 23 24 24 25 25 26 26 26 26 26 27 27 28 29 29 29 30 30 31 32 33 34 34 34 35 36 36 36 36 36 37
48 46 46 43 38 34 32 31 29 28 27 26 25 26 25 25 26 26 27 27 26 27 28 28 28 28 29 28 29 29 30 30 31 31 32 31 32 32 33 34 36 36 37 38 39 40 40 40 40
50 49 42 40 38 36 34 32 31 29 29 27 27 28 28 28 29 30 30 30 30 30 31 31 31 31 30 30 30 29 29 29 29 28 27 28 28 28 30 31 31 32 34 35 36 37 39 39 39
47 45 43 40 39 37 35 33 33 32 29 30 30 31 31 32 33 33 32 33 32 33 33 33 32 31 30 28 26 25 24 24 25 26 27 28 29 30 31 32 32 33 34 35 36 38 39 40 40
46 44 43 41 38 36 36 35 34 33 32 33 33 33 34 35 35 35 35 35 34 34 33 32 28 26 25 25 25 26 27 27 28 29 30 31 31 32 33 34 35 36 38 38 39 41 42 44 45
45 43 42 40 38 38 37 36 36 35 35 34 35 36 36 36 36 36 36 36 36 33 28 25 24 25 25 26 28 29 29 29 29 30 32 34 35 36 37 39 40 42 43 46 47 48 49 50 52
42 41 40 39 37 37 38 38 37 37 37 37 37 38 37 37 37 37 38 36 33 27 23 23 24 25 25 26 27 28 29 31 33 35 37 38 40 41 42 44 46 47 48 50 51 54 55 55 57
43 41 41 41 39 39 40 39 39 40 40 40 39 38 37 37 37 36 34 30 26 25 25 25 26 27 29 31 32 35 37 38 40 41 43 45 46 47 48 48 50 51 51 51 52 52 54 55 58
41 40 40 39 40 40 42 40 40 43 40 38 35 34 34 34 34 31 26 26 25 27 28 30 32 34 36 38 39 41 43 44 46 48 49 50 51 52 52 51 50 49 49 50 51 51 52 52 54
38 36 37 40 38 39 39 39 35 35 32 32 31 31 30 29 28 26 26 27 29 31 33 35 38 40 42 44 47 48 49 50 49 49 49 49 49 49 50 50 51 52 50 45 43 45 48 49 53
35 32 35 32 38 39 34 30 32 32 31 30 29 28 28 27 29 29 30 32 34 36 38 41 44 47 49 50 50 50 49 49 51 53 54 53 52 52 51 49 46 42 38 41 45 47 52 55 58
34 34 31 32 32 32 34 31 30 31 28 29 28 28 29 30 31 33 35 36 39 42 44 47 49 50 49 47 46 49 52 54 52 52 52 52 51 50 46 40 35 35 40 44 49 53 55 58 63
31 33 32 33 31 31 31 29 30 31 30 29 29 30 31 32 34 36 38 41 44 46 47 46 45 45 47 49 49 49 51 53 52 52 50 47 44 39 31 32 35 39 45 48 53 54 58 59 63
28 28 28 28 29 30 30 31 25 29 29 31 33 32 35 36 38 39 41 43 43 42 43 45 46 46 46 48 48 44 39 35 35 33 34 31 30 30 34 36 39 43 47 50 52 54 54 58 64
29 31 30 30 31 31 30 34 26 29 30 34 37 38 38 39 40 40 40 40 41 42 43 44 45 47 41 33 29 30 32 32 30 30 32 33 33 32 34 37 38 43 46 46 49 48 49 51 52
29 29 30 31 32 33 32 33 36 31 32 34 36 38 38 39 38 38 38 40 42 43 44 44 38 29 26 25 27 29 29 28 29 30 33 33 34 36 35 35 38 41 39 44 43 42 40 40 46
29 29 30 32 33 35 32 34 33 33 31 32 34 34 33 33 34 37 39 41 42 38 32 28 26 27 28 29 29 28 27 27 27 27 26 23 24 24 25 30 33 34 37 39 36 31 31 36 41
29 30 31 33 35 35 33 34 30 29 29 28 28 29 31 33 35 36 32 25 20 22 25 28 30 32 33 33 31 27 26 23 25 23 21 20 20 22 24 26 24 24 27 26 26 27 27 30 33
27 29 30 33 34 32 29 27 27 28 27 29 30 30 31 31 25 17 16 19 23 27 29 30 31 32 33 29 26 27 22 22 24 22 20 17 15 15 12 12 15 18 18 20 22 23 25 28 30
29 30 30 31 32 31 29 25 26 29 31 30 30 29 24 17 13 17 21 23 22 25 29 33 35 36 35 32 28 26 19 22 21 19 15 8 6 4 8 11 15 18 20 21 24 25 25 25 27
22 22 24 26 27 29 30 24 26 30 28 25 23 19 15 12 16 20 22 22 23 28 32 36 39 36 34 29 25 21 21 21 17 13 7 2 4 7 10 16 18 20 22 23 23 25 26 26 24
19 21 24 26 26 26 26 8 20 20 18 18 17 16 13 14 18 22 23 25 27 30 32 33 31 14 18 19 19 21 18 15 14 11 10 10 10 13 15 19 23 25 25 25 25 25 25 25 24
Wind_Direction
208 212 206 205 199 196 190 186 185 189 194 197 200 202 205 210 216 224 220 230 238 248 262 269 274 276 279 272 272 284 288 288 290 293 295 295 271 257 255 256 259 263 264 266 267 270 274 276 275
206 208 198 191 189 185 188 186 188 193 196 201 202 199 203 209 217 222 225 235 252 262 274 277 276 278 275 278 279 281 286 287 287 288 295 298 304 314 286 269 266 266 267 267 267 271 272 271 272
197 196 189 187 187 186 190 191 192 195 199 201 202 200 203 210 220 227 235 248 262 275 284 286 283 286 287 284 281 284 285 286 286 287 294 297 295 292 291 291 293 290 282 275 273 272 271 270 270
196 195 190 194 193 195 191 193 195 196 200 203 208 209 213 218 225 236 247 259 271 274 282 293 290 281 285 284 286 285 285 288 281 284 285 286 289 291 291 289 290 288 285 285 286 286 283 283 282
196 194 192 193 198 195 195 197 198 201 204 209 216 221 224 228 235 244 255 262 272 282 285 290 292 288 284 282 282 284 284 283 283 281 282 284 284 284 281 281 280 280 282 283 283 283 283 283 282
195 195 196 199 198 201 201 203 204 208 213 219 225 229 233 237 245 253 261 270 280 288 289 288 288 290 289 281 281 282 284 284 282 281 280 279 280 281 280 281 283 283 282 281 280 280 281 282 283
198 199 200 203 201 205 206 209 213 217 222 228 234 239 244 250 255 262 268 276 282 284 285 286 287 288 289 289 284 283 281 281 282 281 281 282 281 279 278 279 279 279 279 278 278 279 280 280 280
199 203 203 206 206 209 211 215 219 225 232 236 245 251 255 259 262 267 272 277 280 282 285 288 290 289 288 289 287 284 283 284 285 283 282 282 279 279 279 279 277 277 277 277 277 276 277 278 279
201 204 207 207 211 212 217 220 224 229 235 242 250 257 263 268 273 276 280 283 286 285 286 288 288 290 290 290 289 287 285 283 283 283 283 281 280 279 279 278 278 277 276 276 276 275 275 276 276
204 206 208 211 214 218 223 228 232 236 241 247 254 261 267 272 278 280 282 284 285 287 288 289 290 291 290 288 286 285 284 282 281 280 279 277 276 275 276 276 277 278 277 276 277 277 276 275 275
206 210 210 213 217 223 228 232 238 243 248 254 259 264 270 275 278 281 283 282 284 285 286 287 287 286 284 283 281 280 279 279 278 278 277 277 278 279 280 281 281 280 280 281 282 282 282 281 279
209 212 215 217 220 224 230 236 241 247 254 259 265 270 275 278 279 280 280 281 282 283 284 283 282 281 280 278 277 277 277 277 278 279 281 282 284 284 284 283 282 282 282 283 283 282 282 282 281
211 215 218 221 224 227 231 238 244 249 255 262 269 274 278 279 279 279 279 279 280 280 280 280 277 274 274 276 278 280 281 280 281 281 281 281 281 281 282 283 284 283 283 280 279 278 279 280 281
212 217 222 224 228 233 236 239 245 251 257 262 269 274 276 276 276 275 276 277 278 279 276 269 270 273 276 279 280 280 281 281 282 283 283 284 285 285 285 284 283 282 280 280 279 277 277 276 277
217 221 225 230 233 238 241 245 250 253 258 264 269 271 271 270 270 270 272 274 276 272 266 268 273 276 279 281 282 283 283 284 284 284 284 285 286 285 283 282 281 279 278 277 277 279 279 278 277
220 224 229 233 238 243 246 250 253 256 260 264 265 265 264 264 265 269 270 271 266 265 269 275 279 282 283 283 284 286 286 286 286 286 286 285 285 283 281 279 278 278 278 279 279 279 279 280 280
223 228 234 240 244 246 250 254 258 261 261 259 258 260 262 264 265 265 264 262 263 269 274 278 282 284 285 286 287 286 286 286 286 285 284 283 283 282 282 282 282 281 281 282 282 279 278 279 279
222 228 234 239 242 245 252 251 249 247 249 252 256 259 261 262 262 262 260 264 269 273 277 281 284 287 288 288 288 288 288 287 286 285 285 284 284 283 284 284 284 285 284 281 280 280 280 281 281
215 222 228 233 236 241 241 238 242 247 248 254 256 256 257 259 261 263 265 268 274 279 282 284 285 285 286 287 289 289 288 287 287 286 286 286 286 286 286 285 284 280 277 283 289 283 284 286 286
214 221 227 232 236 238 241 245 251 250 252 257 260 260 261 263 265 268 271 275 277 279 280 282 283 285 287 287 287 287 287 287 288 288 287 286 285 284 285 283 277 278 288 290 290 289 291 292 292
219 226 235 241 242 246 248 247 254 257 260 262 264 267 271 273 275 277 277 278 278 279 281 284 285 286 287 288 289 291 291 291 290 289 288 286 284 281 277 277 279 286 292 292 296 295 295 295 296
227 234 240 246 248 249 254 250 254 264 268 270 270 272 273 273 274 274 276 279 282 284 286 287 288 289 292 294 295 295 295 296 296 295 292 288 285 283 283 284 286 289 295 296 299 298 297 301 303
233 238 245 250 251 251 253 259 247 255 265 271 274 276 277 278 280 282 284 285 286 286 287 289 293 296 296 294 297 298 298 299 301 302 300 293 288 285 286 287 291 294 295 299 298 301 303 308 310
232 237 241 247 251 250 254 259 260 264 264 268 272 275 277 279 282 285 286 287 287 290 293 294 294 294 295 296 295 296 298 298 300 300 297 293 289 290 288 290 294 298 300 301 300 305 308 318 326
239 242 248 251 255 257 263 261 268 281 279 272 271 276 278 281 282 284 285 288 289 291 291 292 290 290 289 292 296 299 299 301 302 305 301 298 291 294 301 302 304 301 303 299 303 305 317 324 335
245 250 256 261 262 263 265 269 276 274 273 274 272 272 275 278 281 285 286 286 292 290 290 290 290 290 291 293 298 299 305 306 305 304 309 307 308 307 303 306 310 312 313 313 309 310 322 329 340
250 255 257 260 264 267 267 270 277 276 273 274 276 279 282 284 286 281 285 288 292 293 296 296 293 290 289 291 297 305 305 305 306 307 305 310 302 303 319 334 346 350 353 348 341 333 330 334 341
254 257 260 262 266 267 268 271 275 271 272 274 276 279 277 273 272 284 290 293 296 302 301 301 296 289 283 285 294 304 297 301 309 311 316 313 313 305 318 331 336 340 336 339 339 344 353 352 347
252 255 259 262 266 273 276 275 274 268 271 269 268 268 267 271 288 288 288 292 303 303 304 308 300 284 273 280 288 291 295 298 294 293 285 264 283 307 307 325 329 332 331 332 336 337 343 348 359
258 259 263 267 271 276 279 268 263 268 270 264 265 265 263 278 289 287 290 299 304 309 313 318 317 297 276 280 291 288 297 291 275 260 269 284 274 305 314 322 324 323 323 324 328 332 336 342 345